User: anonymous   Login
Location: Oshawa
(43.9000°N, 78.8670°W)
Time: 17:09:26
(UTC-05:00)
Language:

Cosmos 1707 Rocket - Orbit

View from above orbital plane
View from above orbital plane
View from above satellite
View from above satellite

Ground track
Ground track

The orbit data is extracted from the following two-line orbital elements,

1 16327U 85113B   18053.07256845  .00000074  00000-0  61538-5 0  9990
2 16327  82.5333 218.7821 0017705 242.3577 251.8020 14.83391872738927
Epoch (UTC): 22 February 2018 01:44:29
Eccentricity: 0.0017705
inclination: 82.5333°
perigee height: 606 km
apogee height: 631 km
right ascension of ascending node: 218.7821°
argument of perigee: 242.3577°
revolutions per day: 14.83391872
mean anomaly at epoch: 251.8020°
orbit number at epoch: 73892

The dashed part of the orbit path shows where the satellite is in the earth's shadow,  

DLR